| time (UTC) | temp C | wind direction | speed KPH | gust KPH | rain 1hr cm | rain 24hr cm | rain mn cm | humidity % | barometer mb |
| 20260508033531 | 12 | 187 | 3.2 | 9.7 | 0.00 | 0.00 | 0.00 | 76 | 1012.0 |
| 20260508033050 | 12 | 167 | 4.8 | 9.7 | 0.00 | 0.00 | 0.00 | 76 | 1011.9 |
| 20260508032532 | 12 | 168 | 6.4 | 9.7 | 0.00 | 0.00 | 0.00 | 76 | 1012.0 |
| 20260508032031 | 12 | 169 | 1.6 | 9.7 | 0.00 | 0.00 | 0.00 | 76 | 1012.0 |
| 20260508031551 | 12 | 157 | 3.2 | 11.3 | 0.00 | 0.00 | 0.00 | 76 | 1012.1 |
| 20260508031031 | 12 | 178 | 6.4 | 12.9 | 0.00 | 0.00 | 0.00 | 76 | 1012.0 |
| 20260508030531 | 12 | 176 | 6.4 | 12.9 | 0.00 | 0.00 | 0.00 | 76 | 1012.0 |
| 20260508030047 | 12 | 179 | 6.4 | 12.9 | 0.00 | 0.00 | 0.00 | 76 | 1012.0 |
| 20260508025531 | 12 | 183 | 6.4 | 12.9 | 0.00 | 0.03 | 0.00 | 76 | 1011.9 |
| 20260508025031 | 12 | 196 | 6.4 | 12.9 | 0.00 | 0.03 | 0.00 | 75 | 1012.0 |
| 20260508024544 | 12 | 200 | 4.8 | 11.3 | 0.00 | 0.03 | 0.00 | 75 | 1012.0 |
| 20260508024031 | 12 | 178 | 4.8 | 11.3 | 0.00 | 0.03 | 0.00 | 75 | 1012.2 |
| 20260508023531 | 12 | 177 | 4.8 | 9.7 | 0.00 | 0.03 | 0.00 | 75 | 1012.2 |
| 20260508023049 | 12 | 185 | 3.2 | 8.0 | 0.00 | 0.03 | 0.00 | 75 | 1012.3 |
| 20260508022533 | 12 | 195 | 3.2 | 9.7 | 0.00 | 0.03 | 0.00 | 75 | 1012.3 |
| 20260508022032 | 12 | 195 | 4.8 | 11.3 | 0.00 | 0.03 | 0.00 | 74 | 1012.3 |
| 20260508021548 | 12 | 181 | 6.4 | 11.3 | 0.00 | 0.03 | 0.00 | 74 | 1012.3 |
| 20260508021033 | 12 | 202 | 4.8 | 11.3 | 0.00 | 0.03 | 0.00 | 74 | 1012.4 |
| 20260508020530 | 12 | 188 | 4.8 | 11.3 | 0.00 | 0.03 | 0.00 | 74 | 1012.4 |
| 20260508015531 | 12 | 181 | 4.8 | 12.9 | 0.00 | 0.03 | 0.00 | 75 | 1012.5 |
| 20260508015031 | 12 | 180 | 6.4 | 14.5 | 0.00 | 0.03 | 0.00 | 75 | 1012.5 |
| 20260508014546 | 12 | 169 | 6.4 | 14.5 | 0.00 | 0.03 | 0.00 | 75 | 1012.6 |
| 20260508014031 | 12 | 192 | 4.8 | 12.9 | 0.00 | 0.03 | 0.00 | 75 | 1012.7 |
| 20260508013531 | 12 | 180 | 6.4 | 12.9 | 0.00 | 0.03 | 0.00 | 74 | 1012.7 |
| 20260508013047 | 12 | 177 | 4.8 | 12.9 | 0.00 | 0.03 | 0.00 | 74 | 1012.8 |
| 20260508012531 | 12 | 195 | 8.0 | 12.9 | 0.00 | 0.03 | 0.00 | 74 | 1012.8 |
| 20260508012031 | 12 | 196 | 6.4 | 12.9 | 0.00 | 0.03 | 0.00 | 74 | 1012.8 |
| 20260508011545 | 12 | 191 | 8.0 | 12.9 | 0.00 | 0.03 | 0.00 | 75 | 1012.9 |
| 20260508011031 | 12 | 191 | 8.0 | 12.9 | 0.00 | 0.03 | 0.00 | 75 | 1012.9 |
| 20260508010531 | 12 | 198 | 6.4 | 12.9 | 0.00 | 0.03 | 0.00 | 74 | 1012.9 |
| 20260508010051 | 12 | 203 | 4.8 | 11.3 | 0.00 | 0.03 | 0.00 | 74 | 1013.0 |
| 20260508005533 | 12 | 193 | 4.8 | 12.9 | 0.00 | 0.03 | 0.00 | 74 | 1013.1 |
| 20260508005031 | 13 | 190 | 8.0 | 12.9 | 0.00 | 0.03 | 0.00 | 74 | 1013.1 |
| 20260508004549 | 13 | 185 | 8.0 | 16.1 | 0.00 | 0.03 | 0.00 | 74 | 1013.1 |
| 20260508004031 | 13 | 190 | 6.4 | 19.3 | 0.00 | 0.03 | 0.00 | 74 | 1013.1 |
| 20260508003530 | 13 | 196 | 11.3 | 19.3 | 0.00 | 0.03 | 0.00 | 74 | 1013.1 |
| 20260508003049 | 13 | 189 | 12.9 | 17.7 | 0.00 | 0.03 | 0.00 | 74 | 1013.0 |
| 20260508002531 | 13 | 194 | 11.3 | 16.1 | 0.00 | 0.03 | 0.00 | 73 | 1013.1 |
| 20260508002031 | 13 | 182 | 8.0 | 14.5 | 0.00 | 0.03 | 0.00 | 73 | 1013.2 |
| 20260508001547 | 13 | 184 | 9.7 | 14.5 | 0.00 | 0.03 | 0.00 | 72 | 1013.3 |
| 20260508001031 | 13 | 192 | 6.4 | 12.9 | 0.00 | 0.03 | 0.00 | 72 | 1013.3 |
| 20260508000533 | 13 | 178 | 8.0 | 12.9 | 0.00 | 0.03 | 0.00 | 71 | 1013.3 |
| 20260508000047 | 13 | 186 | 8.0 | 12.9 | 0.00 | 0.03 | 0.00 | 71 | 1013.4 |
| 20260507235531 | 13 | 184 | 9.7 | 14.5 | 0.00 | 0.03 | 0.00 | 71 | 1013.4 |
| 20260507235031 | 13 | 194 | 8.0 | 14.5 | 0.00 | 0.03 | 0.00 | 71 | 1013.4 |
| 20260507234544 | 13 | 196 | 8.0 | 14.5 | 0.00 | 0.03 | 0.00 | 71 | 1013.5 |
| 20260507234032 | 14 | 186 | 8.0 | 14.5 | 0.00 | 0.03 | 0.00 | 70 | 1013.6 |
| 20260507233532 | 14 | 183 | 6.4 | 11.3 | 0.00 | 0.03 | 0.00 | 71 | 1013.6 |
| 20260507233048 | 14 | 190 | 6.4 | 11.3 | 0.00 | 0.03 | 0.00 | 71 | 1013.6 |
| 20260507232531 | 14 | 192 | 8.0 | 11.3 | 0.00 | 0.03 | 0.00 | 71 | 1013.8 |
| 20260507232032 | 14 | 188 | 4.8 | 9.7 | 0.00 | 0.03 | 0.00 | 70 | 1013.8 |
| 20260507231548 | 14 | 171 | 4.8 | 9.7 | 0.00 | 0.03 | 0.00 | 70 | 1013.9 |
| 20260507231037 | 14 | 165 | 3.2 | 11.3 | 0.00 | 0.03 | 0.00 | 69 | 1013.9 |
| 20260507230532 | 15 | 186 | 4.8 | 11.3 | 0.00 | 0.03 | 0.00 | 69 | 1013.8 |
| 20260507230050 | 15 | 202 | 6.4 | 11.3 | 0.00 | 0.03 | 0.00 | 69 | 1014.0 |
| 20260507225531 | 15 | 186 | 4.8 | 9.7 | 0.00 | 0.03 | 0.00 | 69 | 1014.1 |
| 20260507225031 | 15 | 162 | 4.8 | 9.7 | 0.00 | 0.03 | 0.00 | 69 | 1014.2 |
| 20260507224548 | 15 | 186 | 3.2 | 8.0 | 0.00 | 0.03 | 0.00 | 69 | 1014.2 |
| 20260507224031 | 15 | 186 | 3.2 | 8.0 | 0.00 | 0.03 | 0.00 | 68 | 1014.2 |
| 20260507223532 | 15 | 5 | 1.6 | 9.7 | 0.00 | 0.03 | 0.00 | 68 | 1014.3 |
| 20260507223047 | 15 | 5 | 4.8 | 12.9 | 0.00 | 0.03 | 0.00 | 68 | 1014.3 |
| 20260507222530 | 15 | 199 | 8.0 | 14.5 | 0.00 | 0.03 | 0.00 | 68 | 1014.3 |
| 20260507222034 | 15 | 188 | 8.0 | 14.5 | 0.00 | 0.03 | 0.00 | 68 | 1014.1 |
| 20260507221542 | 15 | 186 | 8.0 | 14.5 | 0.00 | 0.03 | 0.00 | 67 | 1014.2 |
| 20260507221033 | 15 | 173 | 6.4 | 11.3 | 0.00 | 0.03 | 0.00 | 67 | 1014.1 |
| 20260507220530 | 15 | 184 | 6.4 | 11.3 | 0.00 | 0.03 | 0.00 | 67 | 1014.1 |
| 20260507220048 | 15 | 184 | 6.4 | 11.3 | 0.00 | 0.03 | 0.00 | 67 | 1014.0 |
| 20260507215531 | 15 | 179 | 6.4 | 11.3 | 0.00 | 0.03 | 0.03 | 68 | 1014.1 |
| 20260507215031 | 15 | 199 | 6.4 | 11.3 | 0.00 | 0.03 | 0.03 | 67 | 1014.1 |
| 20260507214549 | 15 | 191 | 6.4 | 11.3 | 0.00 | 0.03 | 0.03 | 67 | 1014.0 |
| 20260507214030 | 15 | 184 | 6.4 | 11.3 | 0.00 | 0.03 | 0.03 | 67 | 1014.0 |
| 20260507213534 | 16 | 194 | 4.8 | 9.7 | 0.00 | 0.03 | 0.03 | 67 | 1014.0 |
| 20260507213048 | 16 | 191 | 4.8 | 9.7 | 0.00 | 0.03 | 0.03 | 67 | 1014.0 |
| 20260507212530 | 16 | 194 | 4.8 | 11.3 | 0.00 | 0.03 | 0.03 | 67 | 1014.0 |
| 20260507212030 | 16 | 192 | 6.4 | 14.5 | 0.00 | 0.03 | 0.03 | 67 | 1014.0 |
| 20260507211552 | 16 | 188 | 8.0 | 14.5 | 0.00 | 0.03 | 0.03 | 66 | 1013.8 |
| 20260507211034 | 16 | 198 | 6.4 | 11.3 | 0.00 | 0.03 | 0.03 | 66 | 1013.9 |
| 20260507210530 | 16 | 198 | 6.4 | 12.9 | 0.00 | 0.03 | 0.03 | 66 | 1013.9 |
| 20260507210046 | 16 | 193 | 8.0 | 12.9 | 0.00 | 0.03 | 0.03 | 66 | 1014.0 |
| 20260507205531 | 16 | 201 | 6.4 | 12.9 | 0.00 | 0.03 | 0.03 | 65 | 1014.0 |
| 20260507205031 | 16 | 204 | 8.0 | 12.9 | 0.00 | 0.03 | 0.03 | 65 | 1014.0 |
| 20260507204551 | 16 | 193 | 8.0 | 12.9 | 0.00 | 0.03 | 0.03 | 65 | 1013.9 |
| 20260507204031 | 16 | 195 | 8.0 | 12.9 | 0.00 | 0.03 | 0.03 | 64 | 1013.9 |
| 20260507203531 | 16 | 186 | 6.4 | 12.9 | 0.00 | 0.03 | 0.03 | 64 | 1013.9 |
| 20260507203048 | 17 | 183 | 8.0 | 11.3 | 0.00 | 0.03 | 0.03 | 63 | 1013.9 |
| 20260507202530 | 17 | 178 | 8.0 | 11.3 | 0.00 | 0.03 | 0.03 | 63 | 1013.8 |
| 20260507202031 | 17 | 185 | 6.4 | 9.7 | 0.00 | 0.03 | 0.03 | 63 | 1013.7 |
| 20260507201547 | 17 | 189 | 6.4 | 9.7 | 0.00 | 0.03 | 0.03 | 62 | 1013.8 |
| 20260507201032 | 17 | 188 | 6.4 | 9.7 | 0.00 | 0.03 | 0.03 | 62 | 1013.9 |
| 20260507200532 | 17 | 204 | 6.4 | 9.7 | 0.00 | 0.03 | 0.03 | 62 | 1014.0 |
| 20260507200050 | 17 | 202 | 3.2 | 6.4 | 0.00 | 0.03 | 0.03 | 62 | 1014.0 |
| 20260507195531 | 17 | 196 | 3.2 | 8.0 | 0.00 | 0.03 | 0.03 | 63 | 1013.9 |
| 20260507195031 | 17 | 205 | 3.2 | 9.7 | 0.00 | 0.03 | 0.03 | 63 | 1013.9 |
| 20260507194547 | 17 | 360 | 4.8 | 9.7 | 0.00 | 0.03 | 0.03 | 63 | 1013.9 |
| 20260507194031 | 17 | 177 | 6.4 | 9.7 | 0.00 | 0.03 | 0.03 | 64 | 1013.9 |
| 20260507193534 | 17 | 161 | 6.4 | 9.7 | 0.00 | 0.03 | 0.03 | 63 | 1013.8 |
| 20260507193045 | 18 | 171 | 3.2 | 6.4 | 0.00 | 0.03 | 0.03 | 62 | 1013.8 |
| 20260507192531 | 18 | 171 | 4.8 | 8.0 | 0.00 | 0.03 | 0.03 | 63 | 1013.7 |
| 20260507192031 | 18 | 178 | 4.8 | 8.0 | 0.00 | 0.03 | 0.03 | 63 | 1013.6 |
| 20260507191552 | 18 | 196 | 1.6 | 9.7 | 0.00 | 0.03 | 0.03 | 63 | 1013.7 |
| 20260507191031 | 18 | 188 | 3.2 | 9.7 | 0.00 | 0.03 | 0.03 | 64 | 1013.6 |
| 20260507190531 | 17 | 164 | 6.4 | 9.7 | 0.00 | 0.03 | 0.03 | 64 | 1013.6 |
| 20260507190048 | 18 | 155 | 4.8 | 9.7 | 0.00 | 0.03 | 0.03 | 65 | 1013.5 |
| 20260507185532 | 18 | 153 | 4.8 | 8.0 | 0.00 | 0.03 | 0.03 | 64 | 1013.5 |
| 20260507185031 | 18 | 152 | 4.8 | 6.4 | 0.00 | 0.03 | 0.03 | 62 | 1013.5 |
| 20260507184547 | 19 | 148 | 3.2 | 4.8 | 0.00 | 0.03 | 0.03 | 60 | 1013.5 |
| 20260507184032 | 19 | 118 | 1.6 | 3.2 | 0.00 | 0.03 | 0.03 | 58 | 1013.5 |
| 20260507183534 | 19 | 118 | 0.0 | 3.2 | 0.00 | 0.03 | 0.03 | 57 | 1013.6 |
| 20260507183049 | 19 | 118 | 0.0 | 3.2 | 0.00 | 0.03 | 0.03 | 58 | 1013.5 |
| 20260507182531 | 19 | 118 | 1.6 | 3.2 | 0.00 | 0.03 | 0.03 | 58 | 1013.5 |
| 20260507182033 | 19 | 118 | 1.6 | 3.2 | 0.00 | 0.03 | 0.03 | 58 | 1013.6 |
| 20260507181546 | 20 | 118 | 1.6 | 3.2 | 0.00 | 0.03 | 0.03 | 58 | 1013.6 |
| 20260507181031 | 20 | 118 | 0.0 | 3.2 | 0.00 | 0.03 | 0.03 | 58 | 1013.6 |
| 20260507180530 | 20 | 118 | 0.0 | 6.4 | 0.00 | 0.03 | 0.03 | 57 | 1013.6 |
| 20260507180054 | 20 | 113 | 1.6 | 6.4 | 0.00 | 0.03 | 0.03 | 57 | 1013.4 |
| 20260507175531 | 20 | 105 | 3.2 | 6.4 | 0.00 | 0.03 | 0.03 | 57 | 1013.4 |
| 20260507175031 | 20 | 103 | 3.2 | 6.4 | 0.00 | 0.03 | 0.03 | 57 | 1013.4 |
| 20260507174603 | 20 | 114 | 3.2 | 4.8 | 0.00 | 0.03 | 0.03 | 57 | 1013.3 |
| 20260507174031 | 20 | 107 | 3.2 | 6.4 | 0.00 | 0.03 | 0.03 | 57 | 1013.2 |
| 20260507173531 | 20 | 121 | 3.2 | 6.4 | 0.00 | 0.03 | 0.03 | 56 | 1013.2 |
| 20260507173049 | 20 | 120 | 3.2 | 6.4 | 0.00 | 0.03 | 0.03 | 55 | 1013.3 |
| 20260507172531 | 21 | 138 | 1.6 | 4.8 | 0.00 | 0.03 | 0.03 | 50 | 1013.2 |
| 20260507172033 | 21 | 0 | 0.0 | 4.8 | 0.00 | 0.03 | 0.03 | 47 | 1013.2 |
| 20260507171601 | 21 | 191 | 1.6 | 6.4 | 0.00 | 0.03 | 0.03 | 47 | 1013.1 |
| 20260507171031 | 21 | 188 | 3.2 | 6.4 | 0.00 | 0.03 | 0.03 | 47 | 1013.2 |
| 20260507170532 | 21 | 178 | 1.6 | 6.4 | 0.00 | 0.03 | 0.03 | 48 | 1013.1 |
| 20260507170049 | 21 | 192 | 4.8 | 6.4 | 0.00 | 0.03 | 0.03 | 47 | 1013.0 |
| 20260507165531 | 21 | 11 | 3.2 | 6.4 | 0.00 | 0.03 | 0.03 | 46 | 1013.1 |
| 20260507165031 | 21 | 24 | 0.0 | 4.8 | 0.00 | 0.03 | 0.03 | 45 | 1013.1 |
| 20260507164550 | 21 | 18 | 1.6 | 8.0 | 0.00 | 0.03 | 0.03 | 45 | 1013.1 |
| 20260507164032 | 21 | 41 | 3.2 | 8.0 | 0.00 | 0.03 | 0.03 | 46 | 1013.1 |
| 20260507163531 | 21 | 34 | 4.8 | 6.4 | 0.00 | 0.03 | 0.03 | 47 | 1013.0 |
| 20260507163052 | 21 | 204 | 0.0 | 4.8 | 0.00 | 0.03 | 0.03 | 46 | 1013.0 |
| 20260507162532 | 21 | 34 | 0.0 | 4.8 | 0.00 | 0.03 | 0.03 | 46 | 1013.0 |
| 20260507162032 | 21 | 35 | 1.6 | 4.8 | 0.00 | 0.03 | 0.03 | 47 | 1013.0 |
| 20260507161548 | 21 | 200 | 0.0 | 4.8 | 0.00 | 0.03 | 0.03 | 47 | 1013.0 |
| 20260507161030 | 21 | 190 | 1.6 | 4.8 | 0.00 | 0.03 | 0.03 | 46 | 1013.0 |
| 20260507160531 | 21 | 5 | 1.6 | 4.8 | 0.00 | 0.03 | 0.03 | 47 | 1013.0 |
| 20260507160052 | 21 | 185 | 1.6 | 3.2 | 0.00 | 0.03 | 0.03 | 47 | 1013.0 |
| 20260507155531 | 21 | 143 | 0.0 | 1.6 | 0.00 | 0.03 | 0.03 | 47 | 1013.0 |
| 20260507155030 | 21 | 0 | 0.0 | 6.4 | 0.00 | 0.03 | 0.03 | 47 | 1013.2 |
| 20260507154550 | 21 | 0 | 0.0 | 6.4 | 0.00 | 0.03 | 0.03 | 47 | 1013.1 |
| 20260507154033 | 21 | 174 | 0.0 | 6.4 | 0.00 | 0.03 | 0.03 | 46 | 1013.1 |
| 20260507153531 | 21 | 139 | 1.6 | 8.0 | 0.00 | 0.03 | 0.03 | 47 | 1013.2 |
| 20260507153049 | 21 | 140 | 1.6 | 8.0 | 0.00 | 0.03 | 0.03 | 47 | 1013.2 |
| 20260507152533 | 21 | 157 | 3.2 | 8.0 | 0.00 | 0.03 | 0.03 | 47 | 1013.3 |
| 20260507152031 | 21 | 162 | 0.0 | 3.2 | 0.00 | 0.03 | 0.03 | 47 | 1013.2 |
| 20260507151548 | 21 | 164 | 0.0 | 3.2 | 0.00 | 0.03 | 0.03 | 47 | 1013.2 |
| 20260507151031 | 21 | 144 | 1.6 | 4.8 | 0.00 | 0.03 | 0.03 | 48 | 1013.2 |
| 20260507150531 | 21 | 116 | 0.0 | 4.8 | 0.00 | 0.03 | 0.03 | 49 | 1013.2 |
| 20260507150052 | 21 | 87 | 1.6 | 11.3 | 0.00 | 0.03 | 0.03 | 49 | 1013.3 |
| 20260507145531 | 21 | 156 | 3.2 | 11.3 | 0.00 | 0.03 | 0.03 | 49 | 1013.3 |
| 20260507145034 | 21 | 109 | 3.2 | 9.7 | 0.00 | 0.03 | 0.03 | 48 | 1013.3 |
| 20260507144552 | 21 | 97 | 3.2 | 6.4 | 0.00 | 0.03 | 0.03 | 48 | 1013.4 |
| 20260507144031 | 21 | 83 | 1.6 | 6.4 | 0.00 | 0.03 | 0.03 | 48 | 1013.4 |
| 20260507143530 | 21 | 0 | 1.6 | 6.4 | 0.00 | 0.03 | 0.03 | 48 | 1013.4 |
| 20260507143051 | 21 | 175 | 1.6 | 4.8 | 0.00 | 0.03 | 0.03 | 50 | 1013.4 |
| 20260507142531 | 21 | 194 | 0.0 | 4.8 | 0.00 | 0.03 | 0.03 | 49 | 1013.4 |
| 20260507142030 | 21 | 124 | 0.0 | 11.3 | 0.00 | 0.03 | 0.03 | 50 | 1013.5 |
| 20260507141548 | 21 | 156 | 4.8 | 11.3 | 0.00 | 0.03 | 0.03 | 50 | 1013.6 |
| 20260507141031 | 21 | 102 | 3.2 | 11.3 | 0.00 | 0.03 | 0.03 | 51 | 1013.7 |
| 20260507140531 | 21 | 121 | 3.2 | 11.3 | 0.00 | 0.03 | 0.03 | 50 | 1013.7 |
| 20260507135531 | 20 | 93 | 4.8 | 11.3 | 0.00 | 0.03 | 0.03 | 53 | 1013.8 |
| 20260507135031 | 21 | 80 | 4.8 | 11.3 | 0.00 | 0.03 | 0.03 | 52 | 1013.9 |
| 20260507134544 | 21 | 103 | 4.8 | 11.3 | 0.00 | 0.03 | 0.03 | 51 | 1014.0 |
| 20260507134031 | 21 | 90 | 3.2 | 6.4 | 0.00 | 0.03 | 0.03 | 52 | 1014.0 |
| 20260507133531 | 21 | 5 | 3.2 | 9.7 | 0.00 | 0.03 | 0.03 | 50 | 1014.0 |
| 20260507133058 | 21 | 0 | 3.2 | 9.7 | 0.00 | 0.03 | 0.03 | 51 | 1014.1 |
| 20260507132530 | 21 | 186 | 4.8 | 9.7 | 0.00 | 0.03 | 0.03 | 51 | 1014.2 |
| 20260507132034 | 20 | 12 | 1.6 | 9.7 | 0.00 | 0.03 | 0.03 | 55 | 1014.2 |
| 20260507131549 | 20 | 30 | 4.8 | 14.5 | 0.00 | 0.03 | 0.03 | 52 | 1014.3 |
| 20260507131031 | 20 | 36 | 6.4 | 14.5 | 0.00 | 0.03 | 0.03 | 52 | 1014.3 |
| 20260507130530 | 21 | 202 | 8.0 | 14.5 | 0.00 | 0.03 | 0.03 | 51 | 1014.4 |
| 20260507130103 | 20 | 27 | 6.4 | 14.5 | 0.00 | 0.03 | 0.03 | 56 | 1014.5 |
| 20260507125531 | 20 | 57 | 1.6 | 16.1 | 0.00 | 0.03 | 0.03 | 56 | 1014.4 |
| 20260507125031 | 20 | 201 | 9.7 | 17.7 | 0.00 | 0.03 | 0.03 | 55 | 1014.5 |
| 20260507124607 | 20 | 68 | 6.4 | 17.7 | 0.00 | 0.03 | 0.03 | 56 | 1014.6 |
| 20260507124034 | 20 | 5 | 11.3 | 17.7 | 0.00 | 0.03 | 0.03 | 57 | 1014.6 |
| 20260507123533 | 20 | 61 | 9.7 | 17.7 | 0.00 | 0.03 | 0.03 | 56 | 1014.5 |
| 20260507123045 | 20 | 196 | 6.4 | 22.5 | 0.00 | 0.03 | 0.03 | 57 | 1014.5 |
| 20260507122532 | 20 | 27 | 16.1 | 22.5 | 0.00 | 0.03 | 0.03 | 57 | 1014.5 |
| 20260507122032 | 20 | 23 | 11.3 | 22.5 | 0.00 | 0.03 | 0.03 | 58 | 1014.5 |
| 20260507121544 | 20 | 20 | 14.5 | 22.5 | 0.00 | 0.03 | 0.03 | 58 | 1014.5 |
| 20260507121032 | 20 | 15 | 8.0 | 17.7 | 0.00 | 0.03 | 0.03 | 58 | 1014.6 |
| 20260507120532 | 20 | 360 | 9.7 | 17.7 | 0.00 | 0.03 | 0.03 | 57 | 1014.6 |
| 20260507120041 | 19 | 19 | 4.8 | 16.1 | 0.00 | 0.03 | 0.03 | 56 | 1014.6 |
| 20260507115532 | 19 | 204 | 4.8 | 16.1 | 0.00 | 0.03 | 0.03 | 57 | 1014.6 |
| 20260507115033 | 19 | 186 | 9.7 | 16.1 | 0.00 | 0.03 | 0.03 | 57 | 1014.6 |
| 20260507114607 | 19 | 15 | 9.7 | 17.7 | 0.00 | 0.03 | 0.03 | 59 | 1014.6 |
| 20260507114034 | 19 | 188 | 11.3 | 17.7 | 0.00 | 0.03 | 0.03 | 58 | 1014.7 |
| 20260507113532 | 19 | 39 | 3.2 | 8.0 | 0.00 | 0.03 | 0.03 | 59 | 1014.7 |
| 20260507113052 | 19 | 38 | 1.6 | 9.7 | 0.00 | 0.03 | 0.03 | 59 | 1014.9 |
| 20260507112531 | 19 | 9 | 3.2 | 11.3 | 0.00 | 0.03 | 0.03 | 59 | 1014.8 |
| 20260507112032 | 19 | 23 | 3.2 | 11.3 | 0.00 | 0.03 | 0.03 | 59 | 1014.7 |
| 20260507111548 | 19 | 175 | 4.8 | 16.1 | 0.00 | 0.03 | 0.03 | 58 | 1014.8 |
| 20260507111031 | 19 | 191 | 8.0 | 16.1 | 0.00 | 0.03 | 0.03 | 58 | 1014.9 |
| 20260507110531 | 19 | 9 | 3.2 | 14.5 | 0.00 | 0.03 | 0.03 | 59 | 1014.8 |
| 20260507110048 | 19 | 47 | 4.8 | 14.5 | 0.00 | 0.03 | 0.03 | 59 | 1014.9 |
| 20260507105531 | 19 | 360 | 9.7 | 14.5 | 0.00 | 0.03 | 0.03 | 59 | 1014.9 |
| 20260507105032 | 20 | 179 | 4.8 | 12.9 | 0.00 | 0.03 | 0.03 | 58 | 1014.9 |
| 20260507104553 | 20 | 27 | 3.2 | 11.3 | 0.00 | 0.03 | 0.03 | 58 | 1014.9 |
| 20260507104032 | 20 | 165 | 0.0 | 11.3 | 0.00 | 0.03 | 0.03 | 57 | 1014.9 |
| 20260507103532 | 19 | 144 | 4.8 | 11.3 | 0.00 | 0.03 | 0.03 | 58 | 1015.1 |
| 20260507103049 | 19 | 180 | 3.2 | 11.3 | 0.00 | 0.03 | 0.03 | 59 | 1015.1 |
| 20260507102532 | 18 | 144 | 3.2 | 14.5 | 0.00 | 0.03 | 0.03 | 60 | 1015.1 |
| 20260507102032 | 18 | 158 | 8.0 | 14.5 | 0.00 | 0.03 | 0.03 | 60 | 1015.2 |
| 20260507101551 | 18 | 186 | 6.4 | 12.9 | 0.00 | 0.03 | 0.03 | 61 | 1015.2 |
| 20260507101034 | 18 | 194 | 4.8 | 12.9 | 0.00 | 0.03 | 0.03 | 63 | 1015.2 |
| 20260507100532 | 18 | 26 | 8.0 | 12.9 | 0.00 | 0.03 | 0.03 | 61 | 1015.3 |
| 20260507100049 | 18 | 79 | 1.6 | 9.7 | 0.00 | 0.03 | 0.03 | 62 | 1015.3 |
| 20260507095533 | 18 | 19 | 3.2 | 9.7 | 0.00 | 0.03 | 0.03 | 62 | 1015.2 |
| 20260507095032 | 18 | 86 | 4.8 | 9.7 | 0.00 | 0.03 | 0.03 | 61 | 1015.2 |
| 20260507094548 | 18 | 67 | 3.2 | 12.9 | 0.00 | 0.03 | 0.03 | 63 | 1015.2 |
| 20260507094031 | 17 | 22 | 4.8 | 12.9 | 0.00 | 0.03 | 0.03 | 63 | 1015.2 |
| 20260507093531 | 17 | 26 | 4.8 | 12.9 | 0.00 | 0.03 | 0.03 | 63 | 1015.3 |
| 20260507093046 | 17 | 201 | 4.8 | 12.9 | 0.00 | 0.03 | 0.03 | 63 | 1015.3 |
| 20260507092530 | 17 | 18 | 3.2 | 9.7 | 0.00 | 0.03 | 0.03 | 64 | 1015.2 |
| 20260507092031 | 17 | 13 | 3.2 | 9.7 | 0.00 | 0.03 | 0.03 | 64 | 1015.2 |
| 20260507091546 | 17 | 360 | 4.8 | 9.7 | 0.00 | 0.03 | 0.03 | 63 | 1015.3 |
| 20260507091030 | 17 | 202 | 4.8 | 8.0 | 0.00 | 0.03 | 0.03 | 64 | 1015.3 |
| 20260507090531 | 17 | 35 | 3.2 | 6.4 | 0.00 | 0.03 | 0.03 | 64 | 1015.3 |
| 20260507090041 | 17 | 11 | 1.6 | 8.0 | 0.00 | 0.03 | 0.03 | 64 | 1015.3 |
| 20260507085531 | 17 | 34 | 3.2 | 8.0 | 0.00 | 0.03 | 0.03 | 65 | 1015.3 |
| 20260507085031 | 17 | 5 | 3.2 | 6.4 | 0.00 | 0.03 | 0.03 | 66 | 1015.3 |
| 20260507084550 | 17 | 83 | 1.6 | 6.4 | 0.00 | 0.03 | 0.03 | 69 | 1015.2 |
| 20260507084031 | 17 | 98 | 1.6 | 6.4 | 0.00 | 0.03 | 0.03 | 70 | 1015.2 |
| 20260507083532 | 17 | 80 | 3.2 | 4.8 | 0.00 | 0.03 | 0.03 | 71 | 1015.3 |
| 20260507083049 | 16 | 150 | 0.0 | 4.8 | 0.00 | 0.03 | 0.03 | 73 | 1015.3 |
| 20260507082530 | 16 | 0 | 0.0 | 9.7 | 0.00 | 0.03 | 0.03 | 74 | 1015.4 |
| 20260507082030 | 16 | 116 | 1.6 | 11.3 | 0.00 | 0.03 | 0.03 | 75 | 1015.3 |
| 20260507081547 | 16 | 100 | 6.4 | 11.3 | 0.00 | 0.03 | 0.03 | 76 | 1015.3 |
| 20260507081032 | 15 | 78 | 3.2 | 11.3 | 0.00 | 0.03 | 0.03 | 79 | 1015.4 |
| 20260507080531 | 15 | 138 | 4.8 | 11.3 | 0.00 | 0.03 | 0.03 | 79 | 1015.5 |
| 20260507080045 | 15 | 105 | 4.8 | 14.5 | 0.00 | 0.03 | 0.03 | 79 | 1015.5 |
| 20260507075530 | 15 | 129 | 3.2 | 14.5 | 0.00 | 0.03 | 0.03 | 81 | 1015.4 |
| 20260507075033 | 14 | 105 | 9.7 | 14.5 | 0.00 | 0.03 | 0.03 | 81 | 1015.4 |
| 20260507074556 | 14 | 125 | 6.4 | 12.9 | 0.00 | 0.03 | 0.03 | 82 | 1015.4 |
| 20260507074030 | 14 | 111 | 3.2 | 12.9 | 0.00 | 0.03 | 0.03 | 83 | 1015.4 |
| 20260507073530 | 14 | 116 | 6.4 | 12.9 | 0.00 | 0.03 | 0.03 | 82 | 1015.4 |
| 20260507073048 | 13 | 117 | 4.8 | 11.3 | 0.00 | 0.03 | 0.03 | 81 | 1015.4 |
| 20260507072530 | 13 | 111 | 4.8 | 11.3 | 0.00 | 0.03 | 0.03 | 80 | 1015.3 |
| 20260507072031 | 13 | 90 | 3.2 | 6.4 | 0.00 | 0.03 | 0.03 | 80 | 1015.4 |
| 20260507071550 | 13 | 116 | 1.6 | 6.4 | 0.00 | 0.03 | 0.03 | 82 | 1015.4 |
| 20260507071030 | 13 | 90 | 3.2 | 6.4 | 0.00 | 0.03 | 0.03 | 83 | 1015.3 |
| 20260507070533 | 13 | 127 | 4.8 | 6.4 | 0.00 | 0.03 | 0.03 | 84 | 1015.4 |
| 20260507070106 | 12 | 112 | 4.8 | 6.4 | 0.00 | 0.03 | 0.03 | 85 | 1015.2 |
| 20260507065529 | 12 | 109 | 1.6 | 6.4 | 0.00 | 0.00 | 0.00 | 85 | 1015.1 |
| 20260507065030 | 12 | 118 | 3.2 | 8.0 | 0.00 | 0.00 | 0.00 | 86 | 1015.3 |
| 20260507064550 | 12 | 128 | 3.2 | 8.0 | 0.00 | 0.00 | 0.00 | 86 | 1015.2 |
| 20260507064030 | 12 | 138 | 3.2 | 6.4 | 0.00 | 0.00 | 0.00 | 86 | 1015.2 |
| 20260507063531 | 12 | 154 | 1.6 | 8.0 | 0.00 | 0.00 | 0.00 | 86 | 1015.2 |
| 20260507063056 | 12 | 140 | 3.2 | 12.9 | 0.00 | 0.00 | 0.00 | 85 | 1015.2 |
| 20260507062531 | 12 | 129 | 4.8 | 12.9 | 0.00 | 0.00 | 0.00 | 85 | 1015.2 |
| 20260507062031 | 12 | 145 | 3.2 | 9.7 | 0.00 | 0.00 | 0.00 | 86 | 1015.2 |
| 20260507061549 | 12 | 161 | 3.2 | 8.0 | 0.00 | 0.00 | 0.00 | 86 | 1015.3 |
| 20260507061032 | 12 | 156 | 1.6 | 4.8 | 0.00 | 0.00 | 0.00 | 86 | 1015.3 |
| 20260507060543 | 12 | 132 | 1.6 | 6.4 | 0.00 | 0.00 | 0.00 | 86 | 1015.2 |
| 20260507060050 | 12 | 136 | 3.2 | 6.4 | 0.00 | 0.00 | 0.00 | 87 | 1015.2 |
| 20260507055531 | 12 | 144 | 3.2 | 8.0 | 0.00 | 0.00 | 0.00 | 87 | 1015.2 |
| 20260507055032 | 12 | 137 | 1.6 | 8.0 | 0.00 | 0.00 | 0.00 | 88 | 1015.2 |
| 20260507054545 | 12 | 165 | 3.2 | 8.0 | 0.00 | 0.00 | 0.00 | 88 | 1015.1 |
| 20260507054031 | 12 | 169 | 3.2 | 8.0 | 0.00 | 0.00 | 0.00 | 88 | 1015.1 |
| 20260507053531 | 12 | 168 | 3.2 | 8.0 | 0.00 | 0.00 | 0.00 | 88 | 1015.1 |
| 20260507053046 | 13 | 158 | 3.2 | 8.0 | 0.00 | 0.00 | 0.00 | 88 | 1015.1 |
| 20260507052532 | 13 | 159 | 1.6 | 4.8 | 0.00 | 0.00 | 0.00 | 88 | 1015.1 |
| 20260507052032 | 12 | 0 | 1.6 | 4.8 | 0.00 | 0.00 | 0.00 | 88 | 1014.9 |
| 20260507051551 | 12 | 140 | 1.6 | 4.8 | 0.00 | 0.00 | 0.00 | 88 | 1014.9 |
| 20260507051031 | 12 | 142 | 1.6 | 3.2 | 0.00 | 0.00 | 0.00 | 88 | 1014.9 |
| 20260507050533 | 12 | 0 | 0.0 | 3.2 | 0.00 | 0.00 | 0.00 | 88 | 1014.8 |
| 20260507050048 | 12 | 182 | 0.0 | 3.2 | 0.00 | 0.00 | 0.00 | 88 | 1014.9 |
| 20260507045532 | 12 | 0 | 0.0 | 3.2 | 0.00 | 0.00 | 0.00 | 88 | 1014.8 |
| 20260507045032 | 12 | 22 | 1.6 | 3.2 | 0.00 | 0.00 | 0.00 | 88 | 1014.7 |
| 20260507044552 | 12 | 23 | 0.0 | 3.2 | 0.00 | 0.00 | 0.00 | 88 | 1014.6 |
| 20260507044032 | 12 | 0 | 0.0 | 3.2 | 0.00 | 0.00 | 0.00 | 88 | 1014.6 |
| 20260507043531 | 12 | 0 | 0.0 | 3.2 | 0.00 | 0.00 | 0.00 | 88 | 1014.6 |
| 20260507043049 | 12 | 12 | 0.0 | 3.2 | 0.00 | 0.00 | 0.00 | 88 | 1014.7 |
| 20260507042531 | 12 | 0 | 0.0 | 3.2 | 0.00 | 0.00 | 0.00 | 88 | 1014.6 |
| 20260507042033 | 12 | 0 | 0.0 | 4.8 | 0.00 | 0.00 | 0.00 | 88 | 1014.6 |
| 20260507041549 | 12 | 0 | 0.0 | 4.8 | 0.00 | 0.00 | 0.00 | 88 | 1014.5 |
| 20260507041033 | 12 | 12 | 1.6 | 4.8 | 0.00 | 0.00 | 0.00 | 87 | 1014.3 |
| 20260507040533 | 12 | 16 | 3.2 | 4.8 | 0.00 | 0.00 | 0.00 | 87 | 1014.2 |
| 20260507040049 | 12 | 49 | 0.0 | 4.8 | 0.00 | 0.00 | 0.00 | 87 | 1014.2 |
| 20260507035531 | 12 | 38 | 1.6 | 6.4 | 0.00 | 0.00 | 0.00 | 87 | 1014.2 |
| 20260507035032 | 12 | 11 | 1.6 | 6.4 | 0.00 | 0.00 | 0.00 | 87 | 1014.1 |
| 20260507034547 | 12 | 5 | 3.2 | 6.4 | 0.00 | 0.00 | 0.00 | 87 | 1014.1 |
| 20260507034031 | 13 | 25 | 1.6 | 6.4 | 0.00 | 0.00 | 0.00 | 87 | 1014.2 |